Location: Castifao
(42.5040°N, 9.1124°E)
Time: 06:17:31
(UTC+00:00)

Cosmos 1455 - Pass Details

Date: 23 January 2020
Orbit: 499 x 524 km, 82.5° (Epoch: 17 February)

Event Time Altitude Azimuth Distance (km) Brightness Sun altitude
Rises 17:28:21 0° 358° (N) 2,638 5.7 -11.8°
Reaches altitude 10° 17:30:34 10° 4° (N) 1,742 4.7 -12.2°
Maximum altitude 17:34:14 45° 78° (ENE) 700 2.4 -12.8°
Drops below altitude 10° 17:37:52 10° 153° (SSE) 1,713 4.7 -13.4°
Sets 17:40:01 0° 159° (SSE) 2,589 5.7 -13.8°
